Location: Austin
(30.3000°N, 97.7500°W)
Time: 10:38:35
(UTC-05:00)

Resurs 01 Rocket - Pass Details

Date: 05 September 2024
Orbit: 630 x 639 km, 97.8° (Epoch: 11 September)

Event Time Altitude Azimuth Distance (km) Brightness Sun altitude
Exits shadow 22:35:23 14° 256° (WSW) 1,758 4.3 -34.6°
Maximum altitude 22:36:00 15° 266° (W) 1,739 4.3 -34.7°
Drops below altitude 10° 22:38:26 10° 300° (WNW) 2,029 5.0 -35.1°
Sets 22:41:36 0° 324° (NW) 2,941 5.9 -35.7°
